星链-30895 (STARLINK-30895 )

导读

STARLINK-30895是美国SpaceX公司星链星座的一颗低轨通信卫星,于北京时间2023年11月22日发射入轨。作为星链互联网星座的组成部分,它运行在近地轨道,旨在为全球尤其是基础设施匮乏地区提供高速低延迟宽带互联网服务。星链系统配备激光星间链路技术,可实现高速数据传输,助力完成全球网络覆盖,支撑远程通信、应急联网等多元场景应用。

基本信息
目录编号:
58418
目录名称:
STARLINK-30895
国际标识:
2023-180S
轨道中心:
EARTH
卫星名称:
星链-30895
卫星全名:
星链-30895 (STARLINK-30895 )
卫星状态:
在轨 (已飞行939 天)
发射日期:
2023-11-22 UTC
国别 :
美国 (US)
星等 :
--
轨道信息
数据来源 国际轨道数据 AOE轨道数据
星历时间 2026-06-16T17:38:49+0800
1天前
查看轨道信息
2026-06-17T07:00:00+0800
1天前
查看轨道信息
半长轴 6861.217km 6861.24km
偏心率 0.0001199 0.0001718
轨道倾角 43.004° 43.002°
近地点辐角 254.617° 280.423°
升交点赤经 215.004° 211.864°
平近点角 105.455° 262.880°
近地点 482.257km 481.924km
远地点 483.903km 484.282km
周期 94.267分钟 94.268分钟
每日圈数 15.275699 15.275623
详细信息
固有亮度:
5
最大亮度:
0.3
卫星平台:
Starlink v2.0 mini
覆盖范围:
全球
运营商:
太空探索技术公司
运营商所在国:
美国
制造商(研发单位):
太空探索技术公司
制造商所在国:
美国
使用方式:
暂无
卫星简介
星链(Starlink)计划是由太空探索技术公司(SpaceX)提出的一个巨型低轨卫星互联网星座项目,计划在2019年至2024年间在太空搭建由约1.2万颗卫星组成的“星链”网络,其中1584颗将部署在地球上空550千米处的近地轨道,并从2020年开始工作。该卫星仍在工作。
2D轨道图
3D轨道图
轨道高度分析图
轨道倾角分析图
轨道综合分析图
查看轨道综合分析图